Location: Poughquag
(41.6090°N, 73.6820°W)
Time: 15:38:50
(UTC-05:00)

ISS - Pass Details

Date: 25 January 2020
Orbit: 415 x 423 km, 51.6° (Epoch: 25 February)

Event Time Altitude Azimuth Distance (km) Brightness Sun altitude
Rises 17:44:24 0° 254° (WSW) 2,372 2.6 -8.4°
Reaches altitude 10° 17:46:36 10° 263° (W) 1,509 0.7 -8.8°
Maximum altitude 17:49:47 38° 333° (NNW) 668 -2.6 -9.3°
Enters shadow 17:52:51 11° 42° (NE) 1,461 -1.5 -9.9°
